{"data":{"norad_id":63303,"epoch":"2026-09-22T23:03:33.874272Z","epoch_age_seconds":96183,"freshness":"FRESH","line1":"1 63303U 25056D   26265.96080873  .00000958  00000+0  15927-3 0  9993","line2":"2 63303  97.9217  27.4360 0001422  24.8490 335.2786 14.72301658 81516","mean_motion":14.72301658,"eccentricity":0.0001422,"inclination_deg":97.9217,"raan_deg":27.436,"arg_perigee_deg":24.849,"mean_anomaly_deg":335.2786,"bstar":0.00015927,"rev_number":8151,"period_min":97.806043494926,"perigee_km":652.72994884112,"apogee_km":654.72981178188,"semimajor_km":7031.8668803115,"source":"CELESTRAK","updated_at":"2026-09-23T09:00:21.959515Z"}}